Location: Frankfurt+(oder)
(51.7984°N, 12.2168°E)
Time: 08:30:51
(UTC+01:00)

ISS - Visible Passes

Search period start: 17 February 2019 00:00
Search period end: 27 February 2019 00:00
Orbit: 403 x 411 km, 51.6° (Epoch: 17 February)

Date Brightness Start Highest point End Pass type
(mag) Time Alt. Az. Time Alt. Az. Time Alt. Az.
23 Feb -0.9 06:35:00 10° S 06:37:04 16° SE 06:39:09 10° ESE visible
24 Feb -0.5 05:45:37 10° SE 05:45:50 10° SE 05:46:04 10° SE visible
25 Feb -1.9 06:27:27 10° SSW 06:30:18 28° SSE 06:33:09 10° E visible
26 Feb -1.4 05:36:34 10° SSW 05:38:57 19° SE 05:41:21 10° E visible
